Location: Katherine
(14.4670°S, 132.2670°E)
Time: 19:36:55
(UTC+09:30)

ISS - Pass Details

Date: 15 July 2018
Orbit: 402 x 408 km, 51.6° (Epoch: 17 July)

Event Time Altitude Azimuth Distance (km) Brightness Sun altitude
Rises 19:38:31 0° 205° (SSW) 2,325 0.1 -17.0°
Reaches altitude 10° 19:40:45 10° 194° (SSW) 1,461 -1.1 -17.5°
Enters shadow 19:41:46 17° 183° (S) 1,113 -1.8 -17.8°
